User: anonymous
Location: Caltech
(34.1382°N, 118.1253°W)
Time: 03:14:39
(UTC-07:00)
Language:

Iridium 72 - Orbit

View from above orbital plane
View from above orbital plane
View from above satellite
View from above satellite

Ground track
Ground track

The orbit data is extracted from the following two-line orbital elements,

1 25343U 98032B   14105.76621549  .00000384  00000-0  12999-3 0  7570
2 25343 086.3982 348.0950 0002127 103.1542 298.6424 14.34210812833063
Epoch (UTC): 15 April 2014 18:23:21
Eccentricity: 0.0002127
inclination: 86.3982°
perigee height: 776 km
apogee height: 779 km
right ascension of ascending node: 348.0950°
argument of perigee: 103.1542°
revolutions per day: 14.34210812
mean anomaly at epoch: 298.6424°
orbit number at epoch: 83306

The dashed part of the orbit path shows where the satellite is in the earth's shadow,  

DLR